Date String (YYYY-MM-DD hh:mm:ss) UTC,Instrument flags,absolute air pressure of the measurement (hPa),sample flow rate (lpm),inlet stack bypass flow (lpm),air temperature of the measurement (°C),ambient temperature measured by the external sensor (°C),aerosol sample conditioner tube jacket temperature (°C),OPC LED temperature (°C),internal box temperature (°C),relative humidity of the measurement (%),span deviation,mass concentration of particles derived from Lorenz-Mie calculation of OPC scattering (μg/m³),mass concentration of particles derived from Lorenz-Mie calculation of OPC scattering (μg/m³),mass concentration of particles derived from Lorenz-Mie calculation of OPC scattering (μg/m³)
DateTimeUTC,F1_M11,P_M11,Q1_M11,Q2_M11,T1_M11,T2_M11,T3_M11,T4_M11,T5_M11,U1_M11,ZSPAN_M11,X2_M11,X0_M11,X1_M11
2023-10-16 04:00:00,SystemResetWarning,0840.4,5.00,000.00,029.1,027.6,000.0,037.5,030.7,13.4,0000.0,0003.43,0009.89,0003.12
2023-10-16 04:01:00,SystemResetWarning,0840.3,5.01,000.00,029.1,027.6,000.0,037.6,030.7,13.4,0000.0,0003.47,0010.04,0003.13
2023-10-16 04:02:00,SystemResetWarning,0840.3,5.01,000.00,029.1,027.6,000.0,037.5,030.7,13.4,0000.0,0003.48,0009.82,0003.14
2023-10-16 04:03:00,SystemResetWarning,0840.4,5.01,000.00,029.1,027.6,000.0,037.6,030.7,13.3,0000.0,0003.50,0009.59,0003.14
2023-10-16 04:04:00,SystemResetWarning,0840.3,5.01,000.00,029.1,027.6,000.0,037.6,030.7,13.3,0000.0,0003.57,0009.12,0003.14
2023-10-16 04:05:00,SystemResetWarning,0840.3,5.00,000.00,029.1,027.6,000.0,037.6,030.7,13.3,0000.0,0003.61,0008.54,0003.15
2023-10-16 04:06:00,SystemResetWarning,0840.3,5.00,000.00,029.1,027.6,000.0,037.5,030.7,13.3,0000.0,0003.63,0008.31,0003.17
2023-10-16 04:07:00,SystemResetWarning,0840.4,4.99,000.00,029.1,027.6,000.0,037.6,030.7,13.3,0000.0,0003.65,0008.17,0003.17
2023-10-16 04:08:00,SystemResetWarning,0840.3,4.99,000.00,029.1,027.6,000.0,037.6,030.7,13.3,0000.0,0003.66,0008.53,0003.17
2023-10-16 04:09:00,SystemResetWarning,0840.4,5.00,000.00,029.1,027.6,000.0,037.6,030.7,13.3,0000.0,0003.68,0008.25,0003.19
2023-10-16 04:10:00,SystemResetWarning,0840.4,5.00,000.00,029.1,027.6,000.0,037.6,030.7,13.3,0000.0,0003.68,0008.58,0003.18
2023-10-16 04:11:00,SystemResetWarning,0840.4,5.01,000.00,029.1,027.6,000.0,037.6,030.7,13.3,0000.0,0003.70,0009.62,0003.19
2023-10-16 04:12:00,SystemResetWarning,0840.4,5.01,000.00,029.1,027.6,000.0,037.5,030.7,13.3,0000.0,0003.69,0009.66,0003.19
2023-10-16 04:13:00,SystemResetWarning,0840.4,4.99,000.00,029.1,027.6,000.0,037.5,030.7,13.3,0000.0,0003.65,0009.47,0003.18
2023-10-16 04:14:00,SystemResetWarning,0840.4,5.00,000.00,029.1,027.6,000.0,037.6,030.7,13.3,0000.0,0003.63,0010.02,0003.18
2023-10-16 04:15:00,SystemResetWarning,0840.5,5.00,000.00,029.1,027.7,000.0,037.6,030.7,13.3,0000.0,0003.58,0009.97,0003.18
2023-10-16 04:16:00,SystemResetWarning,0840.5,5.00,000.00,029.1,027.7,000.0,037.6,030.8,13.3,0000.0,0003.56,0009.88,0003.17
2023-10-16 04:17:00,SystemResetWarning,0840.5,5.01,000.00,029.1,027.7,000.0,037.5,030.8,13.3,0000.0,0003.54,0009.96,0003.15
2023-10-16 04:18:00,SystemResetWarning,0840.4,5.00,000.00,029.1,027.7,000.0,037.5,030.8,13.3,0000.0,0003.52,0009.93,0003.15
2023-10-16 04:19:00,SystemResetWarning,0840.5,5.00,000.00,029.1,027.7,000.0,037.5,030.8,13.3,0000.0,0003.54,0010.26,0003.15
2023-10-16 04:20:00,SystemResetWarning,0840.5,5.00,000.00,029.1,027.7,000.0,037.5,030.8,13.3,0000.0,0003.55,0010.98,0003.15
2023-10-16 04:21:00,SystemResetWarning,0840.4,5.01,000.00,029.1,027.7,000.0,037.5,030.8,13.3,0000.0,0003.63,0010.66,0003.17
2023-10-16 04:22:00,SystemResetWarning,0840.4,4.99,000.00,029.1,027.7,000.0,037.6,030.8,13.3,0000.0,0003.66,0010.19,0003.17
2023-10-16 04:23:00,SystemResetWarning,0840.3,5.00,000.00,029.2,027.7,000.0,037.6,030.8,13.2,0000.0,0003.69,0010.26,0003.18
2023-10-16 04:24:00,SystemResetWarning,0840.4,5.00,000.00,029.1,027.7,000.0,037.6,030.8,13.3,0000.0,0003.78,0011.94,0003.20
2023-10-16 04:25:00,SystemResetWarning,0840.4,5.01,000.00,029.2,027.7,000.0,037.6,030.8,13.3,0000.0,0003.82,0011.98,0003.21
2023-10-16 04:26:00,SystemResetWarning,0840.3,5.01,000.00,029.2,027.7,000.0,037.6,030.8,13.2,0000.0,0003.85,0011.82,0003.22
2023-10-16 04:27:00,SystemResetWarning,0840.2,4.99,000.00,029.2,027.7,000.0,037.6,030.8,13.2,0000.0,0003.88,0011.89,0003.23
2023-10-16 04:28:00,SystemResetWarning,0840.2,4.99,000.00,029.2,027.7,000.0,037.6,030.8,13.2,0000.0,0003.90,0011.82,0003.25
2023-10-16 04:29:00,SystemResetWarning,0840.2,5.00,000.00,029.2,027.7,000.0,037.6,030.8,13.2,0000.0,0003.93,0011.83,0003.26
2023-10-16 04:30:00,SystemResetWarning,0840.2,5.01,000.00,029.2,027.7,000.0,037.6,030.8,13.2,0000.0,0003.93,0011.27,0003.27
2023-10-16 04:31:00,SystemResetWarning,0840.2,5.01,000.00,029.2,027.7,000.0,037.6,030.7,13.2,0000.0,0003.96,0011.36,0003.26
2023-10-16 04:32:00,SystemResetWarning,0840.2,4.99,000.00,029.2,027.7,000.0,037.6,030.7,13.2,0000.0,0003.88,0012.33,0003.25
2023-10-16 04:33:00,SystemResetWarning,0840.3,4.99,000.00,029.2,027.7,000.0,037.6,030.7,13.2,0000.0,0003.83,0012.08,0003.24
2023-10-16 04:34:00,SystemResetWarning,0840.3,5.00,000.00,029.2,027.7,000.0,037.6,030.8,13.2,0000.0,0003.84,0012.10,0003.23
2023-10-16 04:35:00,SystemResetWarning,0840.3,4.99,000.00,029.1,027.7,000.0,037.6,030.8,13.2,0000.0,0003.83,0010.38,0003.22
2023-10-16 04:36:00,SystemResetWarning,0840.4,5.01,000.00,029.2,027.7,000.0,037.6,030.8,13.2,0000.0,0003.81,0010.47,0003.22
2023-10-16 04:37:00,SystemResetWarning,0840.3,5.01,000.00,029.2,027.7,000.0,037.6,030.7,13.2,0000.0,0003.83,0011.62,0003.21
2023-10-16 04:38:00,SystemResetWarning,0840.4,4.98,000.00,029.1,027.7,000.0,037.6,030.8,13.2,0000.0,0003.82,0011.66,0003.20
2023-10-16 04:39:00,SystemResetWarning,0840.4,4.99,000.00,029.2,027.7,000.0,037.6,030.8,13.2,0000.0,0003.82,0011.80,0003.20
2023-10-16 04:40:00,SystemResetWarning,0840.4,5.00,000.00,029.2,027.7,000.0,037.6,030.8,13.2,0000.0,0003.83,0012.83,0003.18
2023-10-16 04:41:00,SystemResetWarning,0840.3,5.00,000.00,029.2,027.7,000.0,037.6,030.8,13.2,0000.0,0003.80,0013.55,0003.17
2023-10-16 04:42:00,SystemResetWarning,0840.3,5.01,000.00,029.2,027.7,000.0,037.6,030.8,13.2,0000.0,0003.76,0013.26,0003.16
2023-10-16 04:43:00,SystemResetWarning,0840.3,5.01,000.00,029.2,027.7,000.0,037.6,030.8,13.2,0000.0,0003.77,0012.00,0003.16
2023-10-16 04:44:00,SystemResetWarning,0840.2,5.01,000.00,029.2,027.7,000.0,037.6,030.8,13.2,0000.0,0003.80,0012.11,0003.16
2023-10-16 04:45:00,SystemResetWarning,0840.2,4.99,000.00,029.2,027.7,000.0,037.6,030.8,13.2,0000.0,0003.80,0011.88,0003.16
2023-10-16 04:46:00,SystemResetWarning,0840.2,5.00,000.00,029.2,027.7,000.0,037.6,030.8,13.2,0000.0,0003.77,0011.80,0003.16
2023-10-16 04:47:00,SystemResetWarning,0840.2,5.01,000.00,029.2,027.7,000.0,037.6,030.8,13.2,0000.0,0003.79,0011.66,0003.15
2023-10-16 04:48:00,SystemResetWarning,0840.2,5.00,000.00,029.2,027.7,000.0,037.6,030.8,13.2,0000.0,0003.81,0010.65,0003.15
2023-10-16 04:49:00,SystemResetWarning,0840.2,5.00,000.00,029.2,027.7,000.0,037.6,030.8,13.2,0000.0,0003.82,0010.57,0003.15
2023-10-16 04:50:00,SystemResetWarning,0840.2,5.00,000.00,029.2,027.7,000.0,037.6,030.8,13.3,0000.0,0003.80,0010.47,0003.14
2023-10-16 04:51:00,SystemResetWarning,0840.2,5.00,000.00,029.2,027.7,000.0,037.6,030.8,13.4,0000.0,0003.81,0010.17,0003.15
2023-10-16 04:52:00,SystemResetWarning,0840.2,4.99,000.00,029.2,027.7,000.0,037.6,030.8,13.5,0000.0,0003.83,0009.95,0003.16
2023-10-16 04:53:00,SystemResetWarning,0840.2,5.00,000.00,029.2,027.7,000.0,037.6,030.8,13.5,0000.0,0003.81,0008.79,0003.17
2023-10-16 04:54:00,SystemResetWarning,0840.2,5.00,000.00,029.2,027.7,000.0,037.6,030.8,13.5,0000.0,0003.78,0008.77,0003.17
2023-10-16 04:55:00,SystemResetWarning,0840.2,5.00,000.00,029.2,027.7,000.0,037.6,030.9,13.5,0000.0,0003.77,0008.91,0003.17
2023-10-16 04:56:00,SystemResetWarning,0840.2,5.00,000.00,029.2,027.8,000.0,037.6,030.8,13.6,0000.0,0003.73,0009.70,0003.17
2023-10-16 04:57:00,SystemResetWarning,0840.2,5.00,000.00,029.2,027.8,000.0,037.6,030.8,13.6,0000.0,0003.71,0009.64,0003.17
2023-10-16 04:58:00,SystemResetWarning,0840.2,5.00,000.00,029.2,027.8,000.0,037.6,030.8,13.7,0000.0,0003.71,0009.46,0003.17
2023-10-16 04:59:00,SystemResetWarning,0840.2,5.00,000.00,029.2,027.8,000.0,037.6,030.8,13.7,0000.0,0003.68,0009.46,0003.18
